Year,Month,Day,Hour,Minute,Value (Times are PST for temperature in C)
2009,07,26,00,00,17.60
2009,07,26,00,01,17.60
2009,07,26,00,02,17.50
2009,07,26,00,03,17.50
2009,07,26,00,04,17.40
2009,07,26,00,05,17.40
2009,07,26,00,06,17.40
2009,07,26,00,07,17.40
2009,07,26,00,08,17.40
2009,07,26,00,09,17.40
2009,07,26,00,10,17.40
2009,07,26,00,11,17.30
2009,07,26,00,12,17.30
2009,07,26,00,13,17.30
2009,07,26,00,14,17.30
2009,07,26,00,15,17.30
2009,07,26,00,16,17.30
2009,07,26,00,17,17.30
2009,07,26,00,18,17.30
2009,07,26,00,19,17.20
2009,07,26,00,20,17.20
2009,07,26,00,21,17.20
2009,07,26,00,22,17.20
2009,07,26,00,23,17.20
2009,07,26,00,24,17.20
2009,07,26,00,25,17.20
2009,07,26,00,26,17.20
2009,07,26,00,27,17.20
2009,07,26,00,28,17.20
2009,07,26,00,29,17.20
2009,07,26,00,30,17.20
2009,07,26,00,31,17.20
2009,07,26,00,32,17.30
2009,07,26,00,33,17.30
2009,07,26,00,34,17.30
2009,07,26,00,35,17.30
2009,07,26,00,36,17.30
2009,07,26,00,37,17.30
2009,07,26,00,38,17.30
2009,07,26,00,39,17.30
2009,07,26,00,40,17.30
2009,07,26,00,41,17.30
2009,07,26,00,42,17.30
2009,07,26,00,43,17.30
2009,07,26,00,44,17.30
2009,07,26,00,45,17.30
2009,07,26,00,46,17.30
2009,07,26,00,47,17.30
2009,07,26,00,48,17.30
2009,07,26,00,49,17.30
2009,07,26,00,50,17.30
2009,07,26,00,51,17.30
2009,07,26,00,52,17.30
2009,07,26,00,53,17.40
2009,07,26,00,54,17.40
2009,07,26,00,55,17.40
2009,07,26,00,56,17.40
2009,07,26,00,57,17.40
2009,07,26,00,58,17.40
2009,07,26,00,59,17.40
2009,07,26,01,00,17.40
2009,07,26,01,01,17.40
2009,07,26,01,02,17.40
2009,07,26,01,03,17.30
2009,07,26,01,04,17.30
2009,07,26,01,05,17.30
2009,07,26,01,06,17.30
2009,07,26,01,07,17.30
2009,07,26,01,08,17.30
2009,07,26,01,09,17.30
2009,07,26,01,10,17.30
2009,07,26,01,11,17.30
2009,07,26,01,12,17.30
2009,07,26,01,13,17.30
2009,07,26,01,14,17.30
2009,07,26,01,15,17.40
2009,07,26,01,16,17.40
2009,07,26,01,17,17.40
2009,07,26,01,18,17.40
2009,07,26,01,19,17.40
2009,07,26,01,20,17.40
2009,07,26,01,21,17.40
2009,07,26,01,22,17.40
2009,07,26,01,23,17.40
2009,07,26,01,24,17.40
2009,07,26,01,25,17.40
2009,07,26,01,26,17.40
2009,07,26,01,27,17.40
2009,07,26,01,28,17.40
2009,07,26,01,29,17.40
2009,07,26,01,30,17.40
2009,07,26,01,31,17.40
2009,07,26,01,32,17.40
2009,07,26,01,33,17.40
2009,07,26,01,34,17.40
2009,07,26,01,35,17.40
2009,07,26,01,36,17.40
2009,07,26,01,37,17.40
2009,07,26,01,38,17.40
2009,07,26,01,39,17.50
2009,07,26,01,40,17.50
2009,07,26,01,41,17.50
2009,07,26,01,42,17.50
2009,07,26,01,43,17.50
2009,07,26,01,44,17.60
2009,07,26,01,45,17.60
2009,07,26,01,46,17.60
2009,07,26,01,47,17.60
2009,07,26,01,48,17.60
2009,07,26,01,49,17.60
2009,07,26,01,50,17.70
2009,07,26,01,51,17.70
2009,07,26,01,52,17.70
2009,07,26,01,53,17.70
2009,07,26,01,54,17.70
2009,07,26,01,55,17.70
2009,07,26,01,56,17.80
2009,07,26,01,57,17.80
2009,07,26,01,58,17.70
2009,07,26,01,59,17.70
2009,07,26,02,00,17.70
2009,07,26,02,01,17.80
2009,07,26,02,02,17.80
2009,07,26,02,03,17.80
2009,07,26,02,04,17.80
2009,07,26,02,05,17.80
2009,07,26,02,06,17.80
2009,07,26,02,07,17.80
2009,07,26,02,08,17.90
2009,07,26,02,09,17.90
2009,07,26,02,10,17.90
2009,07,26,02,11,17.90
2009,07,26,02,12,17.90
2009,07,26,02,13,17.90
2009,07,26,02,14,17.90
2009,07,26,02,15,17.80
2009,07,26,02,16,17.80
2009,07,26,02,17,17.70
2009,07,26,02,18,17.70
2009,07,26,02,19,17.60
2009,07,26,02,20,17.60
2009,07,26,02,21,17.60
2009,07,26,02,22,17.60
2009,07,26,02,23,17.60
2009,07,26,02,24,17.60
2009,07,26,02,25,17.70
2009,07,26,02,26,17.80
2009,07,26,02,27,17.80
2009,07,26,02,28,17.80
2009,07,26,02,29,17.90
2009,07,26,02,30,17.90
2009,07,26,02,31,17.90
2009,07,26,02,32,17.90
2009,07,26,02,33,17.90
2009,07,26,02,34,17.90
2009,07,26,02,35,17.90
2009,07,26,02,36,17.90
2009,07,26,02,37,17.90
2009,07,26,02,38,17.90
2009,07,26,02,39,17.90
2009,07,26,02,40,17.90
2009,07,26,02,41,17.80
2009,07,26,02,42,17.80
2009,07,26,02,43,17.70
2009,07,26,02,44,17.60
2009,07,26,02,45,17.50
2009,07,26,02,46,17.50
2009,07,26,02,47,17.50
2009,07,26,02,48,17.40
2009,07,26,02,49,17.40
2009,07,26,02,50,17.40
2009,07,26,02,51,17.30
2009,07,26,02,52,17.30
2009,07,26,02,53,17.30
2009,07,26,02,54,17.30
2009,07,26,02,55,17.30
2009,07,26,02,56,17.30
2009,07,26,02,57,17.30
2009,07,26,02,58,17.30
2009,07,26,02,59,17.30
2009,07,26,03,00,17.20
2009,07,26,03,01,17.10
2009,07,26,03,02,17.10
2009,07,26,03,03,17.00
2009,07,26,03,04,16.90
2009,07,26,03,05,16.70
2009,07,26,03,06,16.60
2009,07,26,03,07,16.40
2009,07,26,03,08,16.20
2009,07,26,03,09,16.00
2009,07,26,03,10,15.70
2009,07,26,03,11,15.60
2009,07,26,03,12,15.50
2009,07,26,03,13,15.50
2009,07,26,03,14,15.40
2009,07,26,03,15,15.30
2009,07,26,03,16,15.30
2009,07,26,03,17,15.30
2009,07,26,03,18,15.30
2009,07,26,03,19,15.40
2009,07,26,03,20,15.40
2009,07,26,03,21,15.40
2009,07,26,03,22,15.40
2009,07,26,03,23,15.40
2009,07,26,03,24,15.40
2009,07,26,03,25,15.50
2009,07,26,03,26,15.50
2009,07,26,03,27,15.50
2009,07,26,03,28,15.50
2009,07,26,03,29,15.60
2009,07,26,03,30,15.60
2009,07,26,03,31,15.60
2009,07,26,03,32,15.60
2009,07,26,03,33,15.60
2009,07,26,03,34,15.60
2009,07,26,03,35,15.60
2009,07,26,03,36,15.70
2009,07,26,03,37,15.70
2009,07,26,03,38,15.80
2009,07,26,03,39,15.80
2009,07,26,03,40,15.80
2009,07,26,03,41,15.80
2009,07,26,03,42,15.80
2009,07,26,03,43,15.80
2009,07,26,03,44,15.80
2009,07,26,03,45,15.80
2009,07,26,03,46,15.80
2009,07,26,03,47,15.80
2009,07,26,03,48,15.80
2009,07,26,03,49,15.80
2009,07,26,03,50,15.80
2009,07,26,03,51,15.80
2009,07,26,03,52,15.80
2009,07,26,03,53,15.80
2009,07,26,03,54,15.80
2009,07,26,03,55,15.80
2009,07,26,03,56,15.80
2009,07,26,03,57,15.90
2009,07,26,03,58,15.90
2009,07,26,03,59,15.90
2009,07,26,04,00,15.90
2009,07,26,04,01,16.00
2009,07,26,04,02,16.10
2009,07,26,04,03,16.10
2009,07,26,04,04,16.10
2009,07,26,04,05,16.10
2009,07,26,04,06,16.20
2009,07,26,04,07,16.20
2009,07,26,04,08,16.20
2009,07,26,04,09,16.30
2009,07,26,04,10,16.30
2009,07,26,04,11,16.30
2009,07,26,04,12,16.30
2009,07,26,04,13,16.40
2009,07,26,04,14,16.40
2009,07,26,04,15,16.40
2009,07,26,04,16,16.40
2009,07,26,04,17,16.40
2009,07,26,04,18,16.40
2009,07,26,04,19,16.40
2009,07,26,04,20,16.40
2009,07,26,04,21,16.40
2009,07,26,04,22,16.40
2009,07,26,04,23,16.40
2009,07,26,04,24,16.40
2009,07,26,04,25,16.40
2009,07,26,04,26,16.40
2009,07,26,04,27,16.40
2009,07,26,04,28,16.50
2009,07,26,04,29,16.60
2009,07,26,04,30,16.60
2009,07,26,04,31,16.60
2009,07,26,04,32,16.60
2009,07,26,04,33,16.60
2009,07,26,04,34,16.70
2009,07,26,04,35,16.70
2009,07,26,04,36,16.70
2009,07,26,04,37,16.70
2009,07,26,04,38,16.70
2009,07,26,04,39,16.70
2009,07,26,04,40,16.70
2009,07,26,04,41,16.60
2009,07,26,04,42,16.60
2009,07,26,04,43,16.60
2009,07,26,04,44,16.60
2009,07,26,04,45,16.70
2009,07,26,04,46,16.70
2009,07,26,04,47,16.70
2009,07,26,04,48,16.70
2009,07,26,04,49,16.80
2009,07,26,04,50,16.80
2009,07,26,04,51,16.80
2009,07,26,04,52,16.80
2009,07,26,04,53,16.80
2009,07,26,04,54,16.80
2009,07,26,04,55,16.80
2009,07,26,04,56,16.80
2009,07,26,04,57,16.80
2009,07,26,04,58,16.80
2009,07,26,04,59,16.70
2009,07,26,05,00,16.70
2009,07,26,05,01,16.70
2009,07,26,05,02,16.70
2009,07,26,05,03,16.70
2009,07,26,05,04,16.70
2009,07,26,05,05,16.70
2009,07,26,05,06,16.70
2009,07,26,05,07,16.70
2009,07,26,05,08,16.70
2009,07,26,05,09,16.70
2009,07,26,05,10,16.60
2009,07,26,05,11,16.60
2009,07,26,05,12,16.60
2009,07,26,05,13,16.60
2009,07,26,05,14,16.60
2009,07,26,05,15,16.60
2009,07,26,05,16,16.60
2009,07,26,05,17,16.60
2009,07,26,05,18,16.60
2009,07,26,05,19,16.70
2009,07,26,05,20,16.70
2009,07,26,05,21,16.70
2009,07,26,05,22,16.70
2009,07,26,05,23,16.70
2009,07,26,05,24,16.70
2009,07,26,05,25,16.70
2009,07,26,05,26,16.70
2009,07,26,05,27,16.70
2009,07,26,05,28,16.70
2009,07,26,05,29,16.70
2009,07,26,05,30,16.70
2009,07,26,05,31,16.70
2009,07,26,05,32,16.80
2009,07,26,05,33,16.80
2009,07,26,05,34,16.80
2009,07,26,05,35,16.80
2009,07,26,05,36,16.90
2009,07,26,05,37,16.90
2009,07,26,05,38,16.90
2009,07,26,05,39,17.00
2009,07,26,05,40,17.00
2009,07,26,05,41,17.00
2009,07,26,05,42,16.90
2009,07,26,05,43,16.90
2009,07,26,05,44,17.00
2009,07,26,05,45,17.00
2009,07,26,05,46,17.00
2009,07,26,05,47,17.00
2009,07,26,05,48,17.00
2009,07,26,05,49,17.00
2009,07,26,05,50,17.00
2009,07,26,05,51,17.00
2009,07,26,05,52,17.00
2009,07,26,05,53,17.00
2009,07,26,05,54,16.90
2009,07,26,05,55,16.90
2009,07,26,05,56,16.90
2009,07,26,05,57,16.90
2009,07,26,05,58,16.90
2009,07,26,05,59,16.80
2009,07,26,06,00,16.80
2009,07,26,06,01,16.80
2009,07,26,06,02,16.80
2009,07,26,06,03,16.80
2009,07,26,06,04,16.90
2009,07,26,06,05,16.90
2009,07,26,06,06,16.90
2009,07,26,06,07,16.90
2009,07,26,06,08,16.90
2009,07,26,06,09,16.90
2009,07,26,06,10,16.90
2009,07,26,06,11,16.90
2009,07,26,06,12,17.00
2009,07,26,06,13,17.00
2009,07,26,06,14,17.00
2009,07,26,06,15,16.90
2009,07,26,06,16,16.90
2009,07,26,06,17,16.90
2009,07,26,06,18,16.90
2009,07,26,06,19,16.90
2009,07,26,06,20,16.90
2009,07,26,06,21,16.90
2009,07,26,06,22,16.90
2009,07,26,06,23,16.90
2009,07,26,06,24,16.80
2009,07,26,06,25,16.70
2009,07,26,06,26,16.70
2009,07,26,06,27,16.70
2009,07,26,06,28,16.70
2009,07,26,06,29,16.70
2009,07,26,06,30,16.70
2009,07,26,06,31,16.70
2009,07,26,06,32,16.70
2009,07,26,06,33,16.70
2009,07,26,06,34,16.70
2009,07,26,06,35,16.70
2009,07,26,06,36,16.70
2009,07,26,06,37,16.70
2009,07,26,06,38,16.80
2009,07,26,06,39,16.90
2009,07,26,06,40,16.90
2009,07,26,06,41,17.00
2009,07,26,06,42,17.00
2009,07,26,06,43,17.10
2009,07,26,06,44,17.10
2009,07,26,06,45,17.10
2009,07,26,06,46,17.20
2009,07,26,06,47,17.20
2009,07,26,06,48,17.20
2009,07,26,06,49,17.30
2009,07,26,06,50,17.30
2009,07,26,06,51,17.30
2009,07,26,06,52,17.30
2009,07,26,06,53,17.30
2009,07,26,06,54,17.30
2009,07,26,06,55,17.30
2009,07,26,06,56,17.30
2009,07,26,06,57,17.30
2009,07,26,06,58,17.30
2009,07,26,06,59,17.30
2009,07,26,07,00,17.30
2009,07,26,07,01,17.40
2009,07,26,07,02,17.50
2009,07,26,07,03,17.50
2009,07,26,07,04,17.60
2009,07,26,07,05,17.60
2009,07,26,07,06,17.70
2009,07,26,07,07,17.80
2009,07,26,07,08,17.90
2009,07,26,07,09,17.90
2009,07,26,07,10,18.00
2009,07,26,07,11,18.10
2009,07,26,07,12,18.10
2009,07,26,07,13,18.20
2009,07,26,07,14,18.20
2009,07,26,07,15,18.20
2009,07,26,07,16,18.20
2009,07,26,07,17,18.20
2009,07,26,07,18,18.30
2009,07,26,07,19,18.40
2009,07,26,07,20,18.40
2009,07,26,07,21,18.40
2009,07,26,07,22,18.40
2009,07,26,07,23,18.40
2009,07,26,07,24,18.40
2009,07,26,07,25,18.30
2009,07,26,07,26,18.30
2009,07,26,07,27,18.30
2009,07,26,07,28,18.20
2009,07,26,07,29,18.20
2009,07,26,07,30,18.10
2009,07,26,07,31,18.10
2009,07,26,07,32,18.20
2009,07,26,07,33,18.20
2009,07,26,07,34,18.20
2009,07,26,07,35,18.20
2009,07,26,07,36,18.20
2009,07,26,07,37,18.20
2009,07,26,07,38,18.20
2009,07,26,07,39,18.20
2009,07,26,07,40,18.20
2009,07,26,07,41,18.20
2009,07,26,07,42,18.20
2009,07,26,07,43,18.30
2009,07,26,07,44,18.30
2009,07,26,07,45,18.30
2009,07,26,07,46,18.30
2009,07,26,07,47,18.40
2009,07,26,07,48,18.50
2009,07,26,07,49,18.50
2009,07,26,07,50,18.60
2009,07,26,07,51,18.70
2009,07,26,07,52,18.80
2009,07,26,07,53,18.90
2009,07,26,07,54,19.00
2009,07,26,07,55,19.10
2009,07,26,07,56,19.10
2009,07,26,07,57,19.20
2009,07,26,07,58,19.30
2009,07,26,07,59,19.30
2009,07,26,08,00,19.40
2009,07,26,08,01,19.40
2009,07,26,08,02,19.40
2009,07,26,08,03,19.50
2009,07,26,08,04,19.60
2009,07,26,08,05,19.60
2009,07,26,08,06,19.60
2009,07,26,08,07,19.60
2009,07,26,08,08,19.60
2009,07,26,08,09,19.60
2009,07,26,08,10,19.60
2009,07,26,08,11,19.60
2009,07,26,08,12,19.60
2009,07,26,08,13,19.60
2009,07,26,08,14,19.60
2009,07,26,08,15,19.50
2009,07,26,08,16,19.60
2009,07,26,08,17,19.60
2009,07,26,08,18,19.70
2009,07,26,08,19,19.70
2009,07,26,08,20,19.80
2009,07,26,08,21,19.90
2009,07,26,08,22,19.90
2009,07,26,08,23,19.90
2009,07,26,08,24,19.90
2009,07,26,08,25,20.10
2009,07,26,08,26,20.10
2009,07,26,08,27,20.10
2009,07,26,08,28,20.10
2009,07,26,08,29,20.10
2009,07,26,08,30,20.10
2009,07,26,08,31,20.10
2009,07,26,08,32,19.90
2009,07,26,08,33,19.90
2009,07,26,08,34,19.90
2009,07,26,08,35,19.90
2009,07,26,08,36,19.90
2009,07,26,08,37,19.80
2009,07,26,08,38,19.80
2009,07,26,08,39,19.80
2009,07,26,08,40,19.80
2009,07,26,08,41,19.80
2009,07,26,08,42,19.90
2009,07,26,08,43,19.90
2009,07,26,08,44,19.90
2009,07,26,08,45,19.90
2009,07,26,08,46,19.90
2009,07,26,08,47,20.00
2009,07,26,08,48,20.10
2009,07,26,08,49,20.10
2009,07,26,08,50,20.10
2009,07,26,08,51,20.10
2009,07,26,08,52,20.10
2009,07,26,08,53,20.20
2009,07,26,08,54,20.20
2009,07,26,08,55,20.20
2009,07,26,08,56,20.20
2009,07,26,08,57,20.30
2009,07,26,08,58,20.40
2009,07,26,08,59,20.50
2009,07,26,09,00,20.60
2009,07,26,09,01,20.60
2009,07,26,09,02,20.70
2009,07,26,09,03,20.80
2009,07,26,09,04,20.80
2009,07,26,09,05,20.90
2009,07,26,09,06,21.00
2009,07,26,09,07,20.90
2009,07,26,09,08,20.90
2009,07,26,09,09,21.00
2009,07,26,09,10,21.00
2009,07,26,09,11,21.00
2009,07,26,09,12,21.10
2009,07,26,09,13,21.20
2009,07,26,09,14,21.20
2009,07,26,09,15,21.20
2009,07,26,09,16,21.30
2009,07,26,09,17,21.30
2009,07,26,09,18,21.30
2009,07,26,09,19,21.30
2009,07,26,09,20,21.40
2009,07,26,09,21,21.40
2009,07,26,09,22,21.60
2009,07,26,09,23,21.60
2009,07,26,09,24,21.60
2009,07,26,09,25,21.60
2009,07,26,09,26,21.60
2009,07,26,09,27,21.70
2009,07,26,09,28,21.70
2009,07,26,09,29,21.70
2009,07,26,09,30,21.80
2009,07,26,09,31,21.90
2009,07,26,09,32,21.90
2009,07,26,09,33,21.90
2009,07,26,09,34,22.00
2009,07,26,09,35,22.00
2009,07,26,09,36,21.90
2009,07,26,09,37,21.90
2009,07,26,09,38,21.90
2009,07,26,09,39,21.80
2009,07,26,09,40,21.90
2009,07,26,09,41,21.90
2009,07,26,09,42,21.90
2009,07,26,09,43,22.00
2009,07,26,09,44,22.00
2009,07,26,09,45,22.00
2009,07,26,09,46,21.90
2009,07,26,09,47,21.90
2009,07,26,09,48,21.80
2009,07,26,09,49,21.80
2009,07,26,09,50,21.80
2009,07,26,09,51,21.70
2009,07,26,09,52,21.60
2009,07,26,09,53,21.60
2009,07,26,09,54,21.60
2009,07,26,09,55,21.60
2009,07,26,09,56,21.60
2009,07,26,09,57,21.60
2009,07,26,09,58,21.70
2009,07,26,09,59,21.70
2009,07,26,10,00,21.70
2009,07,26,10,01,21.70
2009,07,26,10,02,21.70
2009,07,26,10,03,21.70
2009,07,26,10,04,21.60
2009,07,26,10,05,21.50
2009,07,26,10,06,21.50
2009,07,26,10,07,21.40
2009,07,26,10,08,21.40
2009,07,26,10,09,21.40
2009,07,26,10,10,21.40
2009,07,26,10,11,21.50
2009,07,26,10,12,21.60
2009,07,26,10,13,21.60
2009,07,26,10,14,21.70
2009,07,26,10,15,21.70
2009,07,26,10,16,21.80
2009,07,26,10,17,21.90
2009,07,26,10,18,22.00
2009,07,26,10,19,22.00
2009,07,26,10,20,22.10
2009,07,26,10,21,22.10
2009,07,26,10,22,22.20
2009,07,26,10,23,22.20
2009,07,26,10,24,22.20
2009,07,26,10,25,22.20
2009,07,26,10,26,22.20
2009,07,26,10,27,22.20
2009,07,26,10,28,22.20
2009,07,26,10,29,22.20
2009,07,26,10,30,22.30
2009,07,26,10,31,22.30
2009,07,26,10,32,22.30
2009,07,26,10,33,22.30
2009,07,26,10,34,22.40
2009,07,26,10,35,22.30
2009,07,26,10,36,22.30
2009,07,26,10,37,22.20
2009,07,26,10,38,22.20
2009,07,26,10,39,22.30
2009,07,26,10,40,22.30
2009,07,26,10,41,22.30
2009,07,26,10,42,22.30
2009,07,26,10,43,22.40
2009,07,26,10,44,22.50
2009,07,26,10,45,22.60
2009,07,26,10,46,22.60
2009,07,26,10,47,22.70
2009,07,26,10,48,22.70
2009,07,26,10,49,22.80
2009,07,26,10,50,22.80
2009,07,26,10,51,22.70
2009,07,26,10,52,22.70
2009,07,26,10,53,22.70
2009,07,26,10,54,22.80
2009,07,26,10,55,22.80
2009,07,26,10,56,22.90
2009,07,26,10,57,22.80
2009,07,26,10,58,22.90
2009,07,26,10,59,22.90
2009,07,26,11,00,22.90
2009,07,26,11,01,22.90
2009,07,26,11,02,22.90
2009,07,26,11,03,22.90
2009,07,26,11,04,22.90
2009,07,26,11,05,22.90
2009,07,26,11,06,22.90
2009,07,26,11,07,22.90
2009,07,26,11,08,23.00
2009,07,26,11,09,23.10
2009,07,26,11,10,23.10
2009,07,26,11,11,23.10
2009,07,26,11,12,23.20
2009,07,26,11,13,23.20
2009,07,26,11,14,23.30
2009,07,26,11,15,23.30
2009,07,26,11,16,23.30
2009,07,26,11,17,23.30
2009,07,26,11,18,23.30
2009,07,26,11,19,23.30
2009,07,26,11,20,23.30
2009,07,26,11,21,23.20
2009,07,26,11,22,23.10
2009,07,26,11,23,23.10
2009,07,26,11,24,23.10
2009,07,26,11,25,23.20
2009,07,26,11,26,23.20
2009,07,26,11,27,23.30
2009,07,26,11,28,23.30
2009,07,26,11,29,23.40
2009,07,26,11,30,23.60
2009,07,26,11,31,23.70
2009,07,26,11,32,23.80
2009,07,26,11,33,23.80
2009,07,26,11,34,23.80
2009,07,26,11,35,23.80
2009,07,26,11,36,23.80
2009,07,26,11,37,23.80
2009,07,26,11,38,23.80
2009,07,26,11,39,23.80
2009,07,26,11,40,23.80
2009,07,26,11,41,23.70
2009,07,26,11,42,23.70
2009,07,26,11,43,23.70
2009,07,26,11,44,23.70
2009,07,26,11,45,23.70
2009,07,26,11,46,23.70
2009,07,26,11,47,23.70
2009,07,26,11,48,23.60
2009,07,26,11,49,23.40
2009,07,26,11,50,23.30
2009,07,26,11,51,23.20
2009,07,26,11,52,23.10
2009,07,26,11,53,23.00
2009,07,26,11,54,22.90
2009,07,26,11,55,22.90
2009,07,26,11,56,22.80
2009,07,26,11,57,22.70
2009,07,26,11,58,22.60
2009,07,26,11,59,22.50
2009,07,26,12,00,22.50
2009,07,26,12,01,22.50
2009,07,26,12,02,22.50
2009,07,26,12,03,22.50
2009,07,26,12,04,22.50
2009,07,26,12,05,22.60
2009,07,26,12,06,22.70
2009,07,26,12,07,22.80
2009,07,26,12,08,22.80
2009,07,26,12,09,22.90
2009,07,26,12,10,22.90
2009,07,26,12,11,22.90
2009,07,26,12,12,22.90
2009,07,26,12,13,23.10
2009,07,26,12,14,23.10
2009,07,26,12,15,23.10
2009,07,26,12,16,23.10
2009,07,26,12,17,23.00
2009,07,26,12,18,22.90
2009,07,26,12,19,22.90
2009,07,26,12,20,22.90
2009,07,26,12,21,22.90
2009,07,26,12,22,22.90
2009,07,26,12,23,22.90
2009,07,26,12,24,22.80
2009,07,26,12,25,22.80
2009,07,26,12,26,22.90
2009,07,26,12,27,22.90
2009,07,26,12,28,23.10
2009,07,26,12,29,23.10
2009,07,26,12,30,23.20
2009,07,26,12,31,23.30
2009,07,26,12,32,23.40
2009,07,26,12,33,23.60
2009,07,26,12,34,23.70
2009,07,26,12,35,23.80
2009,07,26,12,36,23.80
2009,07,26,12,37,24.00
2009,07,26,12,38,24.00
2009,07,26,12,39,23.90
2009,07,26,12,40,23.90
2009,07,26,12,41,23.90
2009,07,26,12,42,24.10
2009,07,26,12,43,24.10
2009,07,26,12,44,24.10
2009,07,26,12,45,24.10
2009,07,26,12,46,24.10
2009,07,26,12,47,24.10
2009,07,26,12,48,24.10
2009,07,26,12,49,24.10
2009,07,26,12,50,24.10
2009,07,26,12,51,24.00
2009,07,26,12,52,23.90
2009,07,26,12,53,23.90
2009,07,26,12,54,23.90
2009,07,26,12,55,24.00
2009,07,26,12,56,24.00
2009,07,26,12,57,24.00
2009,07,26,12,58,24.00
2009,07,26,12,59,23.90
2009,07,26,13,00,24.00
2009,07,26,13,01,24.10
2009,07,26,13,02,24.10
2009,07,26,13,03,24.20
2009,07,26,13,04,24.30
2009,07,26,13,05,24.30
2009,07,26,13,06,24.30
2009,07,26,13,07,24.30
2009,07,26,13,08,24.30
2009,07,26,13,09,24.30
2009,07,26,13,10,24.30
2009,07,26,13,11,24.30
2009,07,26,13,12,24.40
2009,07,26,13,13,24.50
2009,07,26,13,14,24.60
2009,07,26,13,15,24.60
2009,07,26,13,16,24.70
2009,07,26,13,17,24.80
2009,07,26,13,18,24.90
2009,07,26,13,19,25.00
2009,07,26,13,20,25.00
2009,07,26,13,21,25.10
2009,07,26,13,22,25.20
2009,07,26,13,23,25.20
2009,07,26,13,24,25.30
2009,07,26,13,25,25.40
2009,07,26,13,26,25.40
2009,07,26,13,27,25.50
2009,07,26,13,28,25.60
2009,07,26,13,29,25.60
2009,07,26,13,30,25.50
2009,07,26,13,31,25.30
2009,07,26,13,32,25.10
2009,07,26,13,33,25.10
2009,07,26,13,34,25.00
2009,07,26,13,35,25.00
2009,07,26,13,36,25.10
2009,07,26,13,37,25.10
2009,07,26,13,38,25.10
2009,07,26,13,39,25.10
2009,07,26,13,40,25.10
2009,07,26,13,41,25.10
2009,07,26,13,42,25.00
2009,07,26,13,43,25.10
2009,07,26,13,44,25.10
2009,07,26,13,45,25.10
2009,07,26,13,46,25.00
2009,07,26,13,47,24.90
2009,07,26,13,48,24.80
2009,07,26,13,49,24.80
2009,07,26,13,50,24.70
2009,07,26,13,51,24.70
2009,07,26,13,52,24.70
2009,07,26,13,53,24.70
2009,07,26,13,54,24.70
2009,07,26,13,55,24.70
2009,07,26,13,56,24.70
2009,07,26,13,57,24.70
2009,07,26,13,58,24.60
2009,07,26,13,59,24.50
2009,07,26,14,00,24.50
2009,07,26,14,01,24.40
2009,07,26,14,02,24.40
2009,07,26,14,03,24.40
2009,07,26,14,04,24.40
2009,07,26,14,05,24.40
2009,07,26,14,06,24.50
2009,07,26,14,07,24.60
2009,07,26,14,08,24.60
2009,07,26,14,09,24.60
2009,07,26,14,10,24.60
2009,07,26,14,11,24.60
2009,07,26,14,12,24.50
2009,07,26,14,13,24.50
2009,07,26,14,14,24.60
2009,07,26,14,15,24.60
2009,07,26,14,16,24.70
2009,07,26,14,17,24.60
2009,07,26,14,18,24.50
2009,07,26,14,19,24.40
2009,07,26,14,20,24.40
2009,07,26,14,21,24.40
2009,07,26,14,22,24.40
2009,07,26,14,23,24.40
2009,07,26,14,24,24.40
2009,07,26,14,25,24.40
2009,07,26,14,26,24.50
2009,07,26,14,27,24.50
2009,07,26,14,28,24.60
2009,07,26,14,29,24.60
2009,07,26,14,30,24.60
2009,07,26,14,31,24.60
2009,07,26,14,32,24.60
2009,07,26,14,33,24.70
2009,07,26,14,34,24.70
2009,07,26,14,35,24.80
2009,07,26,14,36,24.90
2009,07,26,14,37,24.90
2009,07,26,14,38,24.90
2009,07,26,14,39,25.00
2009,07,26,14,40,25.00
2009,07,26,14,41,25.10
2009,07,26,14,42,25.20
2009,07,26,14,43,25.20
2009,07,26,14,44,25.10
2009,07,26,14,45,25.10
2009,07,26,14,46,25.10
2009,07,26,14,47,25.00
2009,07,26,14,48,24.90
2009,07,26,14,49,24.90
2009,07,26,14,50,24.80
2009,07,26,14,51,24.80
2009,07,26,14,52,24.80
2009,07,26,14,53,24.80
2009,07,26,14,54,24.80
2009,07,26,14,55,24.90
2009,07,26,14,56,25.00
2009,07,26,14,57,25.10
2009,07,26,14,58,25.30
2009,07,26,14,59,25.40
2009,07,26,15,00,25.40
2009,07,26,15,01,25.40
2009,07,26,15,02,25.40
2009,07,26,15,03,25.40
2009,07,26,15,04,25.40
2009,07,26,15,05,25.30
2009,07,26,15,06,25.30
2009,07,26,15,07,25.20
2009,07,26,15,08,25.20
2009,07,26,15,09,25.20
2009,07,26,15,10,25.20
2009,07,26,15,11,25.10
2009,07,26,15,12,25.00
2009,07,26,15,13,24.90
2009,07,26,15,14,24.90
2009,07,26,15,15,25.10
2009,07,26,15,16,25.10
2009,07,26,15,17,25.20
2009,07,26,15,18,25.30
2009,07,26,15,19,25.30
2009,07,26,15,20,25.30
2009,07,26,15,21,25.30
2009,07,26,15,22,25.30
2009,07,26,15,23,25.30
2009,07,26,15,24,25.40
2009,07,26,15,25,25.40
2009,07,26,15,26,25.50
2009,07,26,15,27,25.50
2009,07,26,15,28,25.60
2009,07,26,15,29,25.60
2009,07,26,15,30,25.60
2009,07,26,15,31,25.60
2009,07,26,15,32,25.60
2009,07,26,15,33,25.50
2009,07,26,15,34,25.40
2009,07,26,15,35,25.30
2009,07,26,15,36,25.10
2009,07,26,15,37,25.10
2009,07,26,15,38,25.20
2009,07,26,15,39,25.20
2009,07,26,15,40,25.20
2009,07,26,15,41,25.30
2009,07,26,15,42,25.40
2009,07,26,15,43,25.30
2009,07,26,15,44,25.30
2009,07,26,15,45,25.30
2009,07,26,15,46,25.30
2009,07,26,15,47,25.20
2009,07,26,15,48,25.20
2009,07,26,15,49,25.30
2009,07,26,15,50,25.30
2009,07,26,15,51,25.40
2009,07,26,15,52,25.40
2009,07,26,15,53,25.40
2009,07,26,15,54,25.50
2009,07,26,15,55,25.40
2009,07,26,15,56,25.50
2009,07,26,15,57,25.50
2009,07,26,15,58,25.50
2009,07,26,15,59,25.50
2009,07,26,16,00,25.40
2009,07,26,16,01,25.40
2009,07,26,16,02,25.40
2009,07,26,16,03,25.40
2009,07,26,16,04,25.40
2009,07,26,16,05,25.40
2009,07,26,16,06,25.30
2009,07,26,16,07,25.20
2009,07,26,16,08,25.20
2009,07,26,16,09,25.20
2009,07,26,16,10,25.30
2009,07,26,16,11,25.30
2009,07,26,16,12,25.30
2009,07,26,16,13,25.30
2009,07,26,16,14,25.30
2009,07,26,16,15,25.20
2009,07,26,16,16,25.10
2009,07,26,16,17,25.00
2009,07,26,16,18,25.00
2009,07,26,16,19,24.90
2009,07,26,16,20,24.90
2009,07,26,16,21,24.90
2009,07,26,16,22,24.90
2009,07,26,16,23,24.90
2009,07,26,16,24,24.90
2009,07,26,16,25,24.90
2009,07,26,16,26,25.00
2009,07,26,16,27,25.00
2009,07,26,16,28,25.00
2009,07,26,16,29,24.90
2009,07,26,16,30,25.00
2009,07,26,16,31,25.10
2009,07,26,16,32,25.20
2009,07,26,16,33,25.20
2009,07,26,16,34,25.30
2009,07,26,16,35,25.40
2009,07,26,16,36,25.50
2009,07,26,16,37,25.70
2009,07,26,16,38,25.70
2009,07,26,16,39,25.70
2009,07,26,16,40,25.70
2009,07,26,16,41,25.70
2009,07,26,16,42,25.70
2009,07,26,16,43,25.70
2009,07,26,16,44,25.60
2009,07,26,16,45,25.60
2009,07,26,16,46,25.60
2009,07,26,16,47,25.50
2009,07,26,16,48,25.40
2009,07,26,16,49,25.40
2009,07,26,16,50,25.40
2009,07,26,16,51,25.30
2009,07,26,16,52,25.20
2009,07,26,16,53,25.20
2009,07,26,16,54,25.20
2009,07,26,16,55,25.20
2009,07,26,16,56,25.20
2009,07,26,16,57,25.20
2009,07,26,16,58,25.20
2009,07,26,16,59,25.30
2009,07,26,17,00,25.40
2009,07,26,17,01,25.50
2009,07,26,17,02,25.50
2009,07,26,17,03,25.70
2009,07,26,17,04,25.70
2009,07,26,17,05,25.80
2009,07,26,17,06,25.80
2009,07,26,17,07,25.80
2009,07,26,17,08,25.70
2009,07,26,17,09,25.60
2009,07,26,17,10,25.50
2009,07,26,17,11,25.50
2009,07,26,17,12,25.50
2009,07,26,17,13,25.60
2009,07,26,17,14,25.50
2009,07,26,17,15,25.40
2009,07,26,17,16,25.40
2009,07,26,17,17,25.40
2009,07,26,17,18,25.50
2009,07,26,17,19,25.50